Regional Weather Roundup
Issued by NWS

Home | Current Version | Previous Version | Graphics & Text | Print | Product List | Glossary On
Versions: 1 2 3 4 5 6 7 8 9 10 11 12 13 14 15 16 17 18 19 20 21 22 23 24 25 26 27 28 29 30 31 32 33 34 35 36 37 38 39 40 41 42 43 44 45 46 47 48 49 50
900
ASUS43 KLMK 200210
RWRKY
KENTUCKY REGIONAL WEATHER ROUNDUP
NATIONAL WEATHER SERVICE LOUISVILLE KY
900 PM EST MON FEB 19 2018

NOTE "FAIR" INDICATES FEW OR NO CLOUDS BELOW 12,000 FEET
WITH NO SIGNIFICANT WEATHER AND/OR OBSTRUCTIONS TO VISIBILITY.

KYZ001>023-026-027-061>063-070>075-200300-
WESTERN AND SOUTH CENTRAL KENTUCKY

CITY           SKY/WX    TMP DP  RH WIND       PRES   REMARKS
PADUCAH        FAIR      68  54  60 S10       30.01F
HENDERSON      FAIR      67  57  70 S16       30.02F
OWENSBORO      FAIR      65  56  72 S13       30.06F
HOPKINSVILLE   FAIR      67  57  68 S9        30.08F
BOWLING GREEN  FAIR      66  57  72 S7        30.13S
GLASGOW        FAIR      66  54  64 S7        30.14S
$$

KYZ024-025-028>034-038-045-046-053-200300-
NORTH CENTRAL KENTUCKY

CITY           SKY/WX    TMP DP  RH WIND       PRES   REMARKS
LOUISVILLE/SDF MOCLDY    69  54  58 S14       30.08F
LOUISVILLE/LOU FAIR      67  55  65 S13       30.09S
FORT KNOX      FAIR      64  55  71 S10       30.10F
$$

KYZ035>037-039>044-047>052-055>060-089>105-200300-
NORTHEAST KENTUCKY

CITY           SKY/WX    TMP DP  RH WIND       PRES   REMARKS
LEXINGTON      FAIR      64  54  69 S14       30.15R
COVINGTON      MOCLDY    66  56  70 S14       30.08S
FRANKFORT      FAIR      65  53  65 S10       30.11S
$$

KYZ054-064>069-076>088-106>120-200300-
SOUTHEAST KENTUCKY

CITY           SKY/WX    TMP DP  RH WIND       PRES   REMARKS
JACKSON        FAIR      64  53  67 S7        30.21S
LONDON         FAIR      63  54  72 S7        30.21S
SOMERSET       MOCLDY    63  54  72 MISG      30.21S
MIDDLESBORO    FAIR      58  55  88 CALM      30.25R
MONTICELLO     NOT AVBL
$$





USA.gov is the U.S. government's official web portal to all federal, state and local government web resources and services.